Погода в Куангнгае

Вьетнам     15°07′22″N   108°48′26″E
темп.,
°C
ветер,
м/с
пор.,
м/с
влажн.,
%
обл.,
%
осадки,
мм/ч
давл.,
гПа
погр.,
м
3 марта, ср
ср301:00+21ссз119486 1.0 101623
04:00+21ссв119362 0.3 101523
07:00+22зсз119081 0.7 101735
10:00+25св2377100 0.4 1018557
13:00+26всв237285 0.8 1015800
16:00+26в33715 0.1 1014720
19:00+21вюв11922 0.1 101523
22:00+20юз12935 0.0 101623
4 марта, чт
чт401:00+20зюз22959 0.0 101625
04:00+19зюз229431 0.0 101542
07:00+21зюз128846 0.0 101774
10:00+26зюз017488 0.0 1017627
13:00+27всв337480 0.3 1014823
16:00+25в348291 0.2 1012579
19:00+22вюв119564 0.2 101423
22:00+21юз11952 0.0 101623
5 марта, пт
пт501:00+20юз22961 0.0 101426
04:00+20юз22960 0.0 101329
07:00+21юз22920 0.0 101590
10:00+28юв24660 0.0 1015851
13:00+29в44670 0.0 1012750
16:00+27в45750 0.0 1010529
19:00+22юв12930 0.0 101362
22:00+21ююз22950 0.0 101426
6 марта, сб
сб601:00+20ююз22930 0.0 101426
04:00+19ююз23860 0.0 101329
07:00+21юз23830 0.0 101566
10:00+28вюв22610 0.0 1015596
13:00+30в33630 0.0 1011643
16:00+28в35750 0.0 1011452
19:00+22вюв23942 0.2 101369
22:00+21ююз119718 0.0 101529
7 марта, вс
вс701:00+21ююз129712 0.0 101424
04:00+20ююз12960 0.0 101323
07:00+22ююз22920 0.0 101573
10:00+28в23700 0.0 1016762
13:00+28в44731 0.0 1013783
16:00+26в347545 0.0 1012771
19:00+22в119223 0.0 101423
22:00+21ю019423 0.4 101623